VTD106 UWLS-XWSD

Flight info

Callsign VTD106
Flight time N/A
Altitude 2500
Route 5355N04816E/YASLA 5343N04822E/TERENGA 5331N04821E/KUCHURY 5319N04815E/TRUBETCHINO 5312N04807E/KRASNOSELSK 5251N04753E/RADISHEVO 5244N04737E/STARAYAKULATKA 5230N04731E/MEZHDURECHYE 5205N04724E/VOLSK 5147N04655E/VOSKRESENSKIY 5144N04646E/MARX 5139N04611E/USTKURDUM
Aircraft DA40/L-SDGRY/S

Departure

Time 2026-04-18 10:05
Airport Soldatskaya Tashla Airfield (UWLS)

Arrival

Time N/A
Airport XWSD
Time Latitude Longitude Altitude Speed Heading
2026-04-18 09:35 54.01681 48.30898 855 ft 0 kts 126°
2026-04-18 09:46 54.01682 48.30898 855 ft 0 kts 126°
2026-04-18 09:47 54.01682 48.30897 855 ft 0 kts 126°
2026-04-18 09:54 54.01677 48.30895 855 ft 1 kts 249°
2026-04-18 09:55 54.01679 48.30879 848 ft 3 kts 313°
2026-04-18 09:55 54.01703 48.30847 857 ft 6 kts 321°
2026-04-18 09:55 54.01700 48.30780 856 ft 5 kts 233°
2026-04-18 09:55 54.01695 48.30770 845 ft 0 kts 237°
2026-04-18 09:57 54.01695 48.30776 845 ft 1 kts
2026-04-18 09:57 54.01693 48.30766 846 ft 0 kts 232°
2026-04-18 10:01 54.01690 48.30759 856 ft 5 kts 231°
2026-04-18 10:01 54.01666 48.30704 856 ft 7 kts 229°
2026-04-18 10:01 54.01639 48.30702 856 ft 0 kts 143°
2026-04-18 10:02 54.01637 48.30691 842 ft 5 kts 321°
2026-04-18 10:03 54.01705 48.30607 856 ft 18 kts 324°
2026-04-18 10:03 54.01829 48.30461 852 ft 24 kts 325°
2026-04-18 10:03 54.01962 48.30304 847 ft 16 kts 261°
2026-04-18 10:03 54.01934 48.30336 851 ft 13 kts 133°
2026-04-18 10:04 54.01916 48.30362 845 ft 0 kts 144°
2026-04-18 10:04 54.01809 48.30484 853 ft 31 kts 144°
2026-04-18 10:04 54.01576 48.30777 857 ft 55 kts 144°
2026-04-18 10:05 54.01240 48.31279 939 ft 68 kts 150°
2026-04-18 10:05 54.00894 48.31860 1115 ft 71 kts 142°
2026-04-18 10:05 54.00590 48.32535 1305 ft 72 kts 140°
2026-04-18 10:05 54.00282 48.33206 1481 ft 75 kts 135°
2026-04-18 10:06 53.99981 48.33941 1700 ft 76 kts 134°
2026-04-18 10:06 53.99608 48.34554 1824 ft 76 kts 157°
2026-04-18 10:06 53.99177 48.35080 1911 ft 77 kts 152°
2026-04-18 10:06 53.98751 48.35624 1941 ft 76 kts 155°
2026-04-18 10:07 53.98319 48.36177 1928 ft 80 kts 155°
2026-04-18 10:07 53.97858 48.36747 1975 ft 84 kts 154°
2026-04-18 10:07 53.97378 48.37333 2134 ft 87 kts 157°
2026-04-18 10:07 53.96860 48.37830 2195 ft 82 kts 168°
2026-04-18 10:08 53.96360 48.37735 2233 ft 73 kts 214°
2026-04-18 10:08 53.96061 48.36999 2287 ft 78 kts 229°
2026-04-18 10:08 53.95763 48.36277 2455 ft 72 kts 226°
2026-04-18 10:08 53.95442 48.35619 2534 ft 74 kts 221°
2026-04-18 10:09 53.95103 48.34960 2581 ft 74 kts 222°
2026-04-18 10:09 53.94750 48.34300 2655 ft 77 kts 222°
2026-04-18 10:09 53.94357 48.33611 2661 ft 85 kts 218°
2026-04-18 10:09 53.93903 48.32870 2551 ft 94 kts 219°
2026-04-18 10:10 53.93428 48.32062 2501 ft 99 kts 224°
2026-04-18 10:10 53.92986 48.31171 2463 ft 99 kts 226°
2026-04-18 10:10 53.92597 48.30319 2542 ft 85 kts 227°
2026-04-18 10:10 53.92222 48.29541 2510 ft 86 kts 225°
2026-04-18 10:11 53.91844 48.28736 2524 ft 87 kts 229°
2026-04-18 10:11 53.91489 48.27910 2508 ft 88 kts 221°
2026-04-18 10:11 53.90935 48.27592 2582 ft 86 kts 178°
2026-04-18 10:11 53.90330 48.27869 2552 ft 95 kts 167°
2026-04-18 10:12 53.89688 48.28215 2457 ft 97 kts 169°
2026-04-18 10:12 53.89043 48.28553 2440 ft 96 kts 168°
2026-04-18 10:12 53.88414 48.28873 2482 ft 94 kts 170°
2026-04-18 10:12 53.87787 48.29149 2470 ft 93 kts 169°
2026-04-18 10:13 53.87164 48.29448 2416 ft 92 kts 170°
2026-04-18 10:13 53.86540 48.29711 2349 ft 93 kts 171°
2026-04-18 10:13 53.85911 48.29929 2389 ft 91 kts 176°
2026-04-18 10:13 53.85297 48.30040 2505 ft 85 kts 179°
2026-04-18 10:14 53.84696 48.30126 2557 ft 91 kts 176°
2026-04-18 10:14 53.84065 48.30357 2568 ft 94 kts 172°
2026-04-18 10:14 53.83423 48.30597 2522 ft 95 kts 174°
2026-04-18 10:14 53.82770 48.30785 2501 ft 95 kts 175°
2026-04-18 10:15 53.82134 48.30934 2494 ft 91 kts 176°
2026-04-18 10:15 53.81519 48.31113 2458 ft 90 kts 172°
2026-04-18 10:15 53.80916 48.31366 2475 ft 86 kts 171°
2026-04-18 10:15 53.80345 48.31641 2536 ft 85 kts 171°
2026-04-18 10:16 53.79776 48.31924 2571 ft 83 kts 169°
2026-04-18 10:16 53.79226 48.32226 2603 ft 88 kts 168°
2026-04-18 10:16 53.78628 48.32571 2570 ft 94 kts 168°
2026-04-18 10:16 53.78002 48.32884 2582 ft 94 kts 170°
2026-04-18 10:17 53.77348 48.33193 2495 ft 100 kts 169°
2026-04-18 10:17 53.76695 48.33483 2475 ft 95 kts 172°
2026-04-18 10:17 53.76052 48.33651 2430 ft 94 kts 183°
2026-04-18 10:17 53.75406 48.33913 2414 ft 93 kts 169°
2026-04-18 10:18 53.74827 48.34221 2579 ft 80 kts 163°
2026-04-18 10:18 53.74290 48.34551 2608 ft 82 kts 170°
2026-04-18 10:18 53.73668 48.34757 2468 ft 95 kts 175°
2026-04-18 10:18 53.73017 48.34903 2492 ft 92 kts 178°
2026-04-18 10:19 53.72385 48.34998 2524 ft 90 kts 180°
2026-04-18 10:19 53.71748 48.35069 2483 ft 93 kts 180°
2026-04-18 10:19 53.71111 48.35091 2495 ft 91 kts 184°
2026-04-18 10:19 53.70476 48.35090 2525 ft 91 kts 185°
2026-04-18 10:20 53.69829 48.34935 2479 ft 95 kts 191°
2026-04-18 10:20 53.69213 48.34689 2524 ft 91 kts 197°
2026-04-18 10:20 53.68578 48.34381 2498 ft 96 kts 194°
2026-04-18 10:20 53.67929 48.34138 2491 ft 96 kts 194°
2026-04-18 10:21 53.67275 48.33962 2503 ft 95 kts 189°
2026-04-18 10:21 53.66624 48.33788 2535 ft 94 kts 192°
2026-04-18 10:21 53.65978 48.33595 2528 ft 96 kts 190°
2026-04-18 10:21 53.65328 48.33473 2539 ft 92 kts 187°
2026-04-18 10:22 53.64680 48.33352 2465 ft 93 kts 190°
2026-04-18 10:22 53.64051 48.33185 2490 ft 90 kts 190°
2026-04-18 10:22 53.63429 48.33054 2540 ft 91 kts 191°
2026-04-18 10:22 53.62790 48.32910 2580 ft 92 kts 190°
2026-04-18 10:23 53.62145 48.32824 2625 ft 94 kts 185°
2026-04-18 10:23 53.61501 48.32858 2707 ft 92 kts 181°
2026-04-18 10:23 53.60838 48.32925 2648 ft 98 kts 182°
2026-04-18 10:23 53.60155 48.32958 2557 ft 99 kts 183°
2026-04-18 10:24 53.59466 48.32964 2512 ft 97 kts 184°
2026-04-18 10:24 53.58783 48.32948 2470 ft 98 kts 186°
2026-04-18 10:24 53.58114 48.32899 2464 ft 92 kts 187°
2026-04-18 10:24 53.57492 48.32849 2458 ft 93 kts 186°
2026-04-18 10:25 53.56846 48.32810 2508 ft 89 kts 185°
2026-04-18 10:25 53.56226 48.32744 2525 ft 91 kts 190°
2026-04-18 10:25 53.55613 48.32559 2624 ft 87 kts 194°
2026-04-18 10:25 53.55028 48.32279 2612 ft 91 kts 202°
2026-04-18 10:26 53.54471 48.31815 2594 ft 88 kts 202°
2026-04-18 10:26 53.53902 48.31401 2533 ft 91 kts 204°
2026-04-18 10:26 53.53337 48.30875 2533 ft 93 kts 208°
2026-04-18 10:26 53.52776 48.30316 2527 ft 95 kts 210°
2026-04-18 10:27 53.52181 48.29806 2537 ft 97 kts 199°
2026-04-18 10:27 53.51531 48.29450 2517 ft 101 kts 198°
2026-04-18 10:27 53.50870 48.29081 2517 ft 100 kts 199°
2026-04-18 10:27 53.50218 48.28706 2516 ft 98 kts 199°
2026-04-18 10:28 53.49579 48.28338 2518 ft 96 kts 199°
2026-04-18 10:28 53.48945 48.27970 2517 ft 97 kts 200°
2026-04-18 10:28 53.48306 48.27594 2513 ft 98 kts 200°
2026-04-18 10:28 53.47682 48.27227 2521 ft 93 kts 200°
2026-04-18 10:29 53.47082 48.26874 2513 ft 90 kts 200°
2026-04-18 10:29 53.46509 48.26535 2510 ft 85 kts 199°
2026-04-18 10:29 53.45960 48.26225 2509 ft 82 kts 199°
2026-04-18 10:29 53.45433 48.25951 2524 ft 79 kts 198°
2026-04-18 10:30 53.44907 48.25702 2521 ft 78 kts 196°
2026-04-18 10:30 53.44372 48.25480 2516 ft 80 kts 195°
2026-04-18 10:30 53.43828 48.25277 2519 ft 80 kts 194°
2026-04-18 10:30 53.43284 48.25095 2525 ft 80 kts 193°
2026-04-18 10:31 53.42738 48.24929 2520 ft 80 kts 191°
2026-04-18 10:31 53.42166 48.24778 2515 ft 88 kts 190°
2026-04-18 10:31 53.41557 48.24624 2517 ft 89 kts 190°
2026-04-18 10:31 53.40936 48.24470 2523 ft 91 kts 189°
2026-04-18 10:32 53.40266 48.24313 2508 ft 102 kts 191°
2026-04-18 10:32 53.39578 48.24137 2518 ft 99 kts 191°
2026-04-18 10:32 53.38907 48.23962 2511 ft 95 kts 192°
2026-04-18 10:32 53.38275 48.23796 2517 ft 90 kts 192°
2026-04-18 10:33 53.37664 48.23646 2515 ft 88 kts 191°
2026-04-18 10:33 53.37057 48.23506 2513 ft 88 kts 190°
2026-04-18 10:33 53.36444 48.23377 2522 ft 91 kts 190°
2026-04-18 10:33 53.35812 48.23230 2521 ft 95 kts 191°
2026-04-18 10:34 53.35146 48.23078 2519 ft 95 kts 191°
2026-04-18 10:34 53.34493 48.22932 2513 ft 95 kts 190°
2026-04-18 10:34 53.33838 48.22786 2517 ft 95 kts 190°
2026-04-18 10:34 53.33177 48.22636 2521 ft 97 kts 190°
2026-04-18 10:35 53.32515 48.22482 2517 ft 98 kts 191°
2026-04-18 10:35 53.31845 48.22314 2533 ft 95 kts 192°
2026-04-18 10:35 53.31215 48.22076 2587 ft 90 kts 197°
2026-04-18 10:35 53.30653 48.21620 2662 ft 90 kts 214°
2026-04-18 10:36 53.30113 48.21031 2599 ft 101 kts 209°
2026-04-18 10:36 53.29495 48.20383 2512 ft 103 kts 211°
2026-04-18 10:36 53.28913 48.19747 2544 ft 99 kts 211°
2026-04-18 10:36 53.28335 48.19094 2611 ft 98 kts 212°
2026-04-18 10:37 53.27785 48.18466 2763 ft 96 kts 212°
2026-04-18 10:37 53.27239 48.17849 2892 ft 95 kts 211°
2026-04-18 10:37 53.26704 48.17248 3023 ft 90 kts 210°
2026-04-18 10:37 53.26196 48.16687 3146 ft 82 kts 209°
2026-04-18 10:38 53.25725 48.16149 3312 ft 82 kts 210°
2026-04-18 10:38 53.25255 48.15617 3451 ft 82 kts 210°
2026-04-18 10:38 53.24806 48.15032 3638 ft 80 kts 215°
2026-04-18 10:38 53.24402 48.14402 3820 ft 81 kts 219°
2026-04-18 10:39 53.23953 48.13821 3970 ft 84 kts 202°
2026-04-18 10:39 53.23396 48.13512 4094 ft 85 kts 202°
2026-04-18 10:39 53.22893 48.12989 4260 ft 85 kts 214°
2026-04-18 10:39 53.22443 48.12365 4436 ft 85 kts 216°
2026-04-18 10:40 53.21992 48.11763 4520 ft 83 kts 217°
2026-04-18 10:40 53.21672 48.11359 4501 ft 86 kts 211°
2026-04-18 10:40 53.21154 48.10871 4543 ft 85 kts 208°
2026-04-18 10:40 53.20654 48.10359 4547 ft 86 kts 212°
2026-04-18 10:41 53.20167 48.09767 4555 ft 85 kts 214°
2026-04-18 10:41 53.19673 48.09226 4541 ft 86 kts 210°
2026-04-18 10:41 53.19168 48.08696 4555 ft 85 kts 216°
2026-04-18 10:41 53.18720 48.08069 4575 ft 86 kts 217°
2026-04-18 10:42 53.18268 48.07393 4567 ft 88 kts 221°
2026-04-18 10:42 53.17869 48.06603 4548 ft 90 kts 230°
2026-04-18 10:42 53.17533 48.05727 4574 ft 89 kts 229°
2026-04-18 10:42 53.17041 48.05115 4472 ft 95 kts 195°
2026-04-18 10:43 53.16430 48.04803 4455 ft 91 kts 206°
2026-04-18 10:43 53.15872 48.04296 4421 ft 91 kts 209°
2026-04-18 10:43 53.15340 48.03819 4489 ft 86 kts 209°
2026-04-18 10:43 53.14793 48.03340 4471 ft 90 kts 205°
2026-04-18 10:44 53.14242 48.02891 4498 ft 88 kts 207°
2026-04-18 10:44 53.13692 48.02424 4480 ft 89 kts 206°
2026-04-18 10:44 53.13129 48.01982 4428 ft 90 kts 203°
2026-04-18 10:44 53.12609 48.01557 4427 ft 88 kts 211°
2026-04-18 10:45 53.12028 48.01099 4474 ft 86 kts 198°
2026-04-18 10:45 53.11454 48.00818 4485 ft 86 kts 202°
2026-04-18 10:45 53.10920 48.00314 4447 ft 90 kts 217°
2026-04-18 10:45 53.10438 47.99674 4470 ft 87 kts 211°
2026-04-18 10:46 53.09940 47.99091 4442 ft 89 kts 220°
2026-04-18 10:46 53.09481 47.98394 4441 ft 89 kts 205°
2026-04-18 10:46 53.08885 47.98107 4476 ft 87 kts 198°
2026-04-18 10:46 53.08304 47.97817 4549 ft 88 kts 200°
2026-04-18 10:47 53.07723 47.97462 4562 ft 91 kts 201°
2026-04-18 10:47 53.07128 47.97111 4555 ft 91 kts 198°
2026-04-18 10:47 53.06492 47.96951 4575 ft 94 kts 192°
2026-04-18 10:47 53.05846 47.96772 4500 ft 94 kts 193°
2026-04-18 10:48 53.05189 47.96615 4435 ft 96 kts 191°
2026-04-18 10:48 53.04550 47.96460 4493 ft 90 kts 193°
2026-04-18 10:48 53.03938 47.96283 4504 ft 90 kts 194°
2026-04-18 10:48 53.03330 47.96080 4542 ft 89 kts 195°
2026-04-18 10:49 53.02719 47.95865 4544 ft 91 kts 195°
2026-04-18 10:49 53.02099 47.95634 4548 ft 91 kts 197°
2026-04-18 10:49 53.01479 47.95381 4577 ft 93 kts 196°
2026-04-18 10:49 53.00827 47.95157 4563 ft 98 kts 194°
2026-04-18 10:50 53.00131 47.94950 4431 ft 107 kts 193°
2026-04-18 10:50 52.99434 47.94652 4472 ft 96 kts 199°
2026-04-18 10:50 52.98829 47.94288 4525 ft 87 kts 206°
2026-04-18 10:50 52.98309 47.93844 4542 ft 85 kts 205°
2026-04-18 10:51 52.97752 47.93475 4514 ft 87 kts 201°
2026-04-18 10:51 52.97170 47.93128 4467 ft 90 kts 201°
2026-04-18 10:51 52.96589 47.92781 4476 ft 87 kts 201°
2026-04-18 10:51 52.96039 47.92451 4508 ft 83 kts 201°
2026-04-18 10:52 52.95496 47.92106 4515 ft 85 kts 202°
2026-04-18 10:52 52.94935 47.91710 4491 ft 89 kts 204°
2026-04-18 10:52 52.94380 47.91285 4516 ft 87 kts 205°
2026-04-18 10:52 52.93828 47.90855 4507 ft 87 kts 206°
2026-04-18 10:53 52.93274 47.90406 4436 ft 90 kts 207°
2026-04-18 10:53 52.92719 47.89960 4418 ft 88 kts 204°
2026-04-18 10:53 52.92148 47.89579 4438 ft 89 kts 202°
2026-04-18 10:53 52.91570 47.89212 4471 ft 89 kts 201°
2026-04-18 10:54 52.90976 47.88894 4509 ft 89 kts 199°
2026-04-18 10:54 52.90391 47.88580 4518 ft 90 kts 199°
2026-04-18 10:54 52.89792 47.88238 4525 ft 90 kts 202°
2026-04-18 10:54 52.89222 47.87829 4555 ft 90 kts 207°
2026-04-18 10:55 52.88667 47.87330 4500 ft 92 kts 205°
2026-04-18 10:55 52.88064 47.87011 4494 ft 90 kts 197°
2026-04-18 10:55 52.87459 47.86742 4498 ft 90 kts 197°
2026-04-18 10:55 52.86853 47.86483 4508 ft 90 kts 197°
2026-04-18 10:56 52.86274 47.86111 4497 ft 90 kts 214°
2026-04-18 10:56 52.85862 47.85289 4438 ft 92 kts 225°
2026-04-18 10:56 52.85450 47.84535 4465 ft 88 kts 221°
2026-04-18 10:56 52.85019 47.83805 4454 ft 89 kts 221°
2026-04-18 10:57 52.84584 47.83078 4458 ft 89 kts 222°
2026-04-18 10:57 52.84157 47.82350 4481 ft 88 kts 222°
2026-04-18 10:57 52.83739 47.81612 4496 ft 89 kts 223°
2026-04-18 10:57 52.83326 47.80848 4514 ft 89 kts 224°
2026-04-18 10:58 52.82919 47.80063 4539 ft 90 kts 225°
2026-04-18 10:58 52.82512 47.79266 4557 ft 90 kts 226°
2026-04-18 10:58 52.82106 47.78478 4559 ft 92 kts 224°
2026-04-18 10:58 52.81677 47.77677 4553 ft 94 kts 225°
2026-04-18 10:59 52.81245 47.76853 4541 ft 96 kts 225°
2026-04-18 10:59 52.80815 47.75998 4536 ft 97 kts 227°
2026-04-18 10:59 52.80394 47.75120 4517 ft 97 kts 227°
2026-04-18 10:59 52.79984 47.74240 4513 ft 97 kts 228°
2026-04-18 11:00 52.79574 47.73348 4510 ft 98 kts 228°
2026-04-18 11:00 52.79177 47.72442 4539 ft 99 kts 228°
2026-04-18 11:00 52.78765 47.71511 4717 ft 98 kts 232°
2026-04-18 11:00 52.78341 47.70621 4750 ft 104 kts 221°
2026-04-18 11:01 52.77827 47.69770 4528 ft 108 kts 223°
2026-04-18 11:01 52.77336 47.68839 4465 ft 105 kts 225°
2026-04-18 11:01 52.76866 47.67951 4496 ft 102 kts 224°
2026-04-18 11:02 52.75812 47.66126 4479 ft 110 kts 222°
2026-04-18 11:02 52.75298 47.65246 4492 ft 102 kts 224°
2026-04-18 11:02 52.74829 47.64406 4471 ft 99 kts 222°
2026-04-18 11:02 52.74321 47.63645 4445 ft 98 kts 216°
2026-04-18 11:03 52.73812 47.62939 4462 ft 95 kts 217°
2026-04-18 11:03 52.73298 47.62221 4434 ft 96 kts 217°
2026-04-18 11:03 52.72810 47.61487 4452 ft 94 kts 218°
2026-04-18 11:03 52.72271 47.60889 4468 ft 95 kts 196°
2026-04-18 11:04 52.71627 47.60625 4472 ft 95 kts 195°
2026-04-18 11:04 52.70987 47.60348 4467 ft 96 kts 197°
2026-04-18 11:04 52.70334 47.60076 4461 ft 96 kts 193°
2026-04-18 11:04 52.69697 47.59859 4471 ft 94 kts 193°
2026-04-18 11:05 52.69066 47.59638 4474 ft 91 kts 193°
2026-04-18 11:05 52.68453 47.59423 4480 ft 90 kts 193°
2026-04-18 11:05 52.67848 47.59222 4480 ft 87 kts 193°
2026-04-18 11:05 52.67262 47.59000 4433 ft 87 kts 193°
2026-04-18 11:06 52.66671 47.58748 4378 ft 88 kts 196°
2026-04-18 11:06 52.66088 47.58497 4378 ft 85 kts 194°
2026-04-18 11:06 52.65499 47.58285 4405 ft 86 kts 193°
2026-04-18 11:06 52.64920 47.58068 4458 ft 86 kts 193°
2026-04-18 11:07 52.64342 47.57858 4486 ft 86 kts 193°
2026-04-18 11:07 52.63743 47.57657 4506 ft 89 kts 193°
2026-04-18 11:07 52.63133 47.57461 4494 ft 91 kts 190°
2026-04-18 11:07 52.62517 47.57261 4498 ft 89 kts 192°
2026-04-18 11:08 52.61905 47.57017 4458 ft 92 kts 194°
2026-04-18 11:08 52.61279 47.56798 4489 ft 94 kts 192°
2026-04-18 11:08 52.60638 47.56579 4488 ft 93 kts 192°
2026-04-18 11:08 52.60004 47.56355 4454 ft 93 kts 193°
2026-04-18 11:09 52.59361 47.56158 4374 ft 95 kts 189°
2026-04-18 11:09 52.58713 47.55959 4386 ft 93 kts 191°
2026-04-18 11:09 52.58082 47.55738 4383 ft 92 kts 194°
2026-04-18 11:09 52.57470 47.55451 4359 ft 91 kts 195°
2026-04-18 11:10 52.56848 47.55193 4376 ft 93 kts 193°
2026-04-18 11:10 52.56231 47.54989 4524 ft 87 kts 189°
2026-04-18 11:10 52.55619 47.54848 4515 ft 90 kts 189°
2026-04-18 11:10 52.55004 47.54718 4551 ft 87 kts 188°
2026-04-18 11:11 52.54413 47.54583 4571 ft 86 kts 194°
2026-04-18 11:11 52.53840 47.54281 4561 ft 89 kts 198°
2026-04-18 11:11 52.53229 47.53951 4506 ft 93 kts 197°
2026-04-18 11:11 52.52613 47.53636 4514 ft 92 kts 196°
2026-04-18 11:12 52.52001 47.53347 4529 ft 91 kts 195°
2026-04-18 11:12 52.51392 47.53083 4532 ft 90 kts 194°
2026-04-18 11:12 52.50784 47.52844 4517 ft 90 kts 193°
2026-04-18 11:12 52.50171 47.52624 4495 ft 89 kts 192°
2026-04-18 11:13 52.49562 47.52430 4499 ft 90 kts 191°
2026-04-18 11:13 52.48946 47.52266 4467 ft 91 kts 188°
2026-04-18 11:13 52.48311 47.52130 4435 ft 91 kts 188°
2026-04-18 11:13 52.47684 47.52012 4424 ft 91 kts 187°
2026-04-18 11:14 52.47062 47.51858 4422 ft 91 kts 191°
2026-04-18 11:14 52.46446 47.51611 4441 ft 90 kts 193°
2026-04-18 11:14 52.45834 47.51420 4417 ft 91 kts 188°
2026-04-18 11:14 52.45215 47.51279 4444 ft 88 kts 189°
2026-04-18 11:15 52.44609 47.51120 4454 ft 88 kts 189°
2026-04-18 11:15 52.44010 47.50967 4476 ft 87 kts 189°
2026-04-18 11:15 52.43413 47.50821 4480 ft 87 kts 188°
2026-04-18 11:15 52.42813 47.50655 4473 ft 88 kts 191°
2026-04-18 11:16 52.42204 47.50473 4468 ft 87 kts 190°
2026-04-18 11:16 52.41615 47.50290 4487 ft 86 kts 190°
2026-04-18 11:16 52.41033 47.50117 4511 ft 85 kts 190°
2026-04-18 11:16 52.40440 47.49938 4510 ft 90 kts 190°
2026-04-18 11:17 52.39818 47.49756 4512 ft 92 kts 190°
2026-04-18 11:17 52.39181 47.49578 4484 ft 93 kts 190°
2026-04-18 11:17 52.38545 47.49407 4493 ft 93 kts 188°
2026-04-18 11:17 52.37907 47.49253 4500 ft 92 kts 189°
2026-04-18 11:18 52.37275 47.49100 4532 ft 92 kts 188°
2026-04-18 11:18 52.36636 47.48950 4546 ft 94 kts 188°
2026-04-18 11:18 52.35989 47.48800 4552 ft 94 kts 187°
2026-04-18 11:18 52.35338 47.48746 4531 ft 97 kts 177°
2026-04-18 11:19 52.34682 47.49084 4531 ft 99 kts 160°
2026-04-18 11:19 52.34064 47.49577 4559 ft 98 kts 160°
2026-04-18 11:19 52.33448 47.50085 4553 ft 100 kts 158°
2026-04-18 11:19 52.32835 47.50602 4548 ft 100 kts 160°
2026-04-18 11:20 52.32202 47.51109 4557 ft 99 kts 157°
2026-04-18 11:20 52.31622 47.51711 4540 ft 101 kts 153°
2026-04-18 11:20 52.31023 47.52284 4522 ft 97 kts 165°
2026-04-18 11:20 52.30382 47.52555 4541 ft 94 kts 174°
2026-04-18 11:21 52.29732 47.52759 4562 ft 92 kts 171°
2026-04-18 11:21 52.29126 47.53066 4577 ft 92 kts 165°
2026-04-18 11:21 52.28532 47.53447 4587 ft 92 kts 164°
2026-04-18 11:21 52.27907 47.53837 4510 ft 100 kts 165°
2026-04-18 11:22 52.27275 47.54267 4566 ft 96 kts 162°
2026-04-18 11:22 52.26652 47.54752 4487 ft 100 kts 158°
2026-04-18 11:22 52.26044 47.55273 4491 ft 99 kts 159°
2026-04-18 11:22 52.25428 47.55769 4496 ft 98 kts 160°
2026-04-18 11:23 52.24819 47.56276 4521 ft 97 kts 159°
2026-04-18 11:23 52.24210 47.56736 4492 ft 97 kts 163°
2026-04-18 11:23 52.23581 47.57121 4459 ft 97 kts 167°
2026-04-18 11:23 52.22941 47.57476 4460 ft 96 kts 168°
2026-04-18 11:24 52.22294 47.57741 4434 ft 97 kts 171°
2026-04-18 11:24 52.21644 47.58001 4476 ft 95 kts 169°
2026-04-18 11:24 52.21217 47.58188 4474 ft 96 kts 169°
2026-04-18 11:24 52.20342 47.58500 4447 ft 96 kts 175°
2026-04-18 11:25 52.19903 47.58580 4452 ft 96 kts 178°
2026-04-18 11:25 52.19241 47.58596 4478 ft 95 kts 186°
2026-04-18 11:25 52.18586 47.58487 4507 ft 95 kts 185°
2026-04-18 11:25 52.17930 47.58449 4534 ft 94 kts 183°
2026-04-18 11:26 52.17270 47.58457 4507 ft 96 kts 180°
2026-04-18 11:26 52.16610 47.58448 4515 ft 94 kts 184°
2026-04-18 11:26 52.15953 47.58335 4493 ft 96 kts 190°
2026-04-18 11:26 52.15313 47.58046 4497 ft 96 kts 196°
2026-04-18 11:27 52.14659 47.57748 4486 ft 97 kts 193°
2026-04-18 11:27 52.14011 47.57502 4490 ft 96 kts 191°
2026-04-18 11:27 52.13355 47.57297 4481 ft 96 kts 189°
2026-04-18 11:27 52.12708 47.57034 4510 ft 97 kts 197°
2026-04-18 11:28 52.12079 47.56676 4571 ft 95 kts 197°
2026-04-18 11:28 52.11447 47.56334 4609 ft 96 kts 198°
2026-04-18 11:28 52.10845 47.55876 4606 ft 96 kts 207°
2026-04-18 11:28 52.10291 47.55253 4634 ft 97 kts 216°
2026-04-18 11:29 52.09845 47.54420 4659 ft 101 kts 231°
2026-04-18 11:29 52.09490 47.53432 4716 ft 101 kts 234°
2026-04-18 11:29 52.09118 47.52439 4693 ft 103 kts 229°
2026-04-18 11:29 52.08715 47.51478 4720 ft 103 kts 231°
2026-04-18 11:30 52.08325 47.50443 4646 ft 109 kts 233°
2026-04-18 11:30 52.07978 47.49335 4577 ft 112 kts 237°
2026-04-18 11:30 52.07646 47.48223 4583 ft 106 kts 236°
2026-04-18 11:30 52.07324 47.47156 4608 ft 105 kts 235°
2026-04-18 11:31 52.06974 47.46104 4607 ft 106 kts 235°
2026-04-18 11:31 52.06665 47.45035 4647 ft 103 kts 237°
2026-04-18 11:31 52.06358 47.43989 4700 ft 101 kts 231°
2026-04-18 11:31 52.05978 47.43047 4725 ft 102 kts 235°
2026-04-18 11:32 52.05639 47.41977 4597 ft 110 kts 233°
2026-04-18 11:32 52.05288 47.40891 4515 ft 111 kts 238°
2026-04-18 11:32 52.04954 47.39764 4492 ft 109 kts 236°
2026-04-18 11:32 52.04611 47.38702 4547 ft 103 kts 235°
2026-04-18 11:33 52.04256 47.37719 4568 ft 99 kts 225°
2026-04-18 11:33 52.03779 47.36912 4570 ft 99 kts 221°
2026-04-18 11:33 52.03304 47.36091 4553 ft 101 kts 221°
2026-04-18 11:33 52.02823 47.35265 4530 ft 101 kts 222°
2026-04-18 11:34 52.02353 47.34408 4530 ft 102 kts 223°
2026-04-18 11:34 52.01891 47.33530 4551 ft 103 kts 224°
2026-04-18 11:34 52.01427 47.32660 4601 ft 101 kts 224°
2026-04-18 11:34 52.00989 47.31748 4620 ft 104 kts 226°
2026-04-18 11:35 52.00533 47.30815 4611 ft 106 kts 226°
2026-04-18 11:35 52.00065 47.29854 4555 ft 110 kts 226°
2026-04-18 11:35 51.99584 47.28894 4485 ft 107 kts 226°
2026-04-18 11:35 51.99140 47.27975 4479 ft 101 kts 226°
2026-04-18 11:36 51.98715 47.27089 4482 ft 98 kts 225°
2026-04-18 11:36 51.98296 47.26235 4482 ft 96 kts 225°
2026-04-18 11:36 51.97891 47.25403 4463 ft 93 kts 225°
2026-04-18 11:36 51.97494 47.24587 4339 ft 92 kts 223°
2026-04-18 11:37 51.97064 47.23822 4213 ft 91 kts 221°
2026-04-18 11:37 51.96627 47.23074 4066 ft 91 kts 220°
2026-04-18 11:37 51.96203 47.22299 3917 ft 92 kts 224°
2026-04-18 11:37 51.95805 47.21476 3770 ft 94 kts 226°
2026-04-18 11:38 51.95392 47.20663 3625 ft 93 kts 225°
2026-04-18 11:38 51.94983 47.19859 3529 ft 92 kts 225°
2026-04-18 11:38 51.94578 47.19036 3380 ft 94 kts 226°
2026-04-18 11:38 51.94173 47.18202 3249 ft 94 kts 226°
2026-04-18 11:39 51.93778 47.17370 3105 ft 93 kts 227°
2026-04-18 11:39 51.93397 47.16544 2981 ft 90 kts 225°
2026-04-18 11:39 51.93020 47.15745 2842 ft 89 kts 225°
2026-04-18 11:39 51.92645 47.14969 2723 ft 86 kts 224°
2026-04-18 11:40 51.92267 47.14224 2604 ft 85 kts 223°
2026-04-18 11:40 51.91874 47.13467 2531 ft 91 kts 225°
2026-04-18 11:40 51.91482 47.12654 2595 ft 91 kts 225°
2026-04-18 11:40 51.91085 47.11868 2672 ft 90 kts 223°
2026-04-18 11:41 51.90662 47.11068 2627 ft 97 kts 223°
2026-04-18 11:41 51.90212 47.10236 2586 ft 100 kts 222°
2026-04-18 11:41 51.89755 47.09406 2587 ft 98 kts 223°
2026-04-18 11:41 51.89304 47.08583 2565 ft 98 kts 223°
2026-04-18 11:42 51.88862 47.07748 2563 ft 97 kts 225°
2026-04-18 11:42 51.88442 47.06908 2536 ft 98 kts 227°
2026-04-18 11:42 51.88028 47.06037 2536 ft 96 kts 226°
2026-04-18 11:42 51.87591 47.05220 2519 ft 96 kts 223°
2026-04-18 11:43 51.87143 47.04413 2517 ft 97 kts 224°
2026-04-18 11:43 51.86701 47.03579 2507 ft 99 kts 224°
2026-04-18 11:43 51.86280 47.02725 2524 ft 96 kts 225°
2026-04-18 11:43 51.85859 47.01888 2546 ft 95 kts 224°
2026-04-18 11:44 51.85441 47.01060 2559 ft 95 kts 224°
2026-04-18 11:44 51.85001 47.00262 2545 ft 95 kts 222°
2026-04-18 11:44 51.84558 46.99479 2569 ft 94 kts 223°
2026-04-18 11:44 51.84117 46.98698 2574 ft 95 kts 221°
2026-04-18 11:45 51.83660 46.97912 2529 ft 97 kts 221°
2026-04-18 11:45 51.83198 46.97101 2515 ft 98 kts 223°
2026-04-18 11:45 51.82759 46.96276 2558 ft 96 kts 224°
2026-04-18 11:45 51.82337 46.95431 2533 ft 98 kts 224°
2026-04-18 11:46 51.81898 46.94584 2504 ft 98 kts 224°
2026-04-18 11:46 51.81452 46.93769 2507 ft 96 kts 222°
2026-04-18 11:46 51.81008 46.92968 2493 ft 96 kts 224°
2026-04-18 11:46 51.80580 46.92138 2482 ft 96 kts 224°
2026-04-18 11:47 51.80149 46.91318 2507 ft 96 kts 227°
2026-04-18 11:47 51.79776 46.90415 2518 ft 98 kts 232°
2026-04-18 11:47 51.79419 46.89462 2491 ft 100 kts 231°
2026-04-18 11:47 51.79051 46.88520 2496 ft 99 kts 230°
2026-04-18 11:48 51.78672 46.87595 2500 ft 99 kts 229°
2026-04-18 11:48 51.78281 46.86685 2511 ft 99 kts 229°
2026-04-18 11:48 51.77888 46.85785 2504 ft 98 kts 228°
2026-04-18 11:48 51.77509 46.84885 2481 ft 97 kts 227°
2026-04-18 11:49 51.77139 46.83961 2437 ft 99 kts 231°
2026-04-18 11:49 51.76791 46.83002 2456 ft 98 kts 229°
2026-04-18 11:49 51.76415 46.82094 2526 ft 96 kts 226°
2026-04-18 11:49 51.76022 46.81222 2506 ft 98 kts 225°
2026-04-18 11:50 51.75602 46.80357 2464 ft 98 kts 224°
2026-04-18 11:50 51.75189 46.79497 2466 ft 95 kts 223°
2026-04-18 11:50 51.74748 46.78727 2462 ft 92 kts 220°
2026-04-18 11:50 51.74326 46.77928 2444 ft 96 kts 226°
2026-04-18 11:51 51.73985 46.76983 2453 ft 98 kts 238°
2026-04-18 11:51 51.73732 46.75984 2510 ft 95 kts 238°
2026-04-18 11:51 51.73469 46.75005 2512 ft 96 kts 237°
2026-04-18 11:51 51.73230 46.73973 2484 ft 102 kts 248°
2026-04-18 11:52 51.73184 46.72791 2496 ft 107 kts 263°
2026-04-18 11:52 51.73237 46.71614 2525 ft 105 kts 263°
2026-04-18 11:52 51.73270 46.70430 2491 ft 106 kts 261°
2026-04-18 11:52 51.73286 46.69248 2501 ft 103 kts 258°
2026-04-18 11:53 51.73226 46.68135 2520 ft 99 kts 249°
2026-04-18 11:53 51.73045 46.67060 2482 ft 100 kts 244°
2026-04-18 11:53 51.72846 46.65997 2482 ft 99 kts 243°
2026-04-18 11:53 51.72646 46.64938 2488 ft 99 kts 242°
2026-04-18 11:54 51.72424 46.63880 2452 ft 100 kts 241°
2026-04-18 11:54 51.72193 46.62825 2460 ft 98 kts 243°
2026-04-18 11:54 51.72005 46.61783 2445 ft 98 kts 247°
2026-04-18 11:54 51.71843 46.60702 2406 ft 98 kts 247°
2026-04-18 11:55 51.71643 46.59669 2410 ft 97 kts 242°
2026-04-18 11:55 51.71435 46.58641 2469 ft 95 kts 242°
2026-04-18 11:55 51.71212 46.57613 2428 ft 99 kts 239°
2026-04-18 11:55 51.70991 46.56561 2476 ft 99 kts 242°
2026-04-18 11:56 51.70786 46.55513 2552 ft 99 kts 241°
2026-04-18 11:56 51.70551 46.54461 2513 ft 100 kts 240°
2026-04-18 11:56 51.70305 46.53439 2504 ft 99 kts 240°
2026-04-18 11:56 51.70073 46.52422 2506 ft 95 kts 239°
2026-04-18 11:57 51.69838 46.51417 2519 ft 96 kts 241°
2026-04-18 11:57 51.69604 46.50427 2565 ft 93 kts 237°
2026-04-18 11:57 51.69351 46.49479 2639 ft 91 kts 236°
2026-04-18 11:57 51.69086 46.48542 2646 ft 94 kts 236°
2026-04-18 11:58 51.68790 46.47564 2574 ft 99 kts 235°
2026-04-18 11:58 51.68477 46.46565 2518 ft 100 kts 236°
2026-04-18 11:58 51.68192 46.45546 2481 ft 99 kts 239°
2026-04-18 11:58 51.67938 46.44537 2522 ft 96 kts 238°
2026-04-18 11:59 51.67684 46.43555 2555 ft 95 kts 238°
2026-04-18 11:59 51.67423 46.42571 2579 ft 96 kts 237°
2026-04-18 11:59 51.67144 46.41582 2605 ft 97 kts 238°
2026-04-18 11:59 51.66883 46.40580 2605 ft 97 kts 240°
2026-04-18 12:00 51.66622 46.39578 2585 ft 96 kts 237°
2026-04-18 12:00 51.66313 46.38600 2515 ft 100 kts 239°
2026-04-18 12:00 51.66075 46.37574 2507 ft 97 kts 241°
2026-04-18 12:00 51.65848 46.36561 2494 ft 95 kts 242°
2026-04-18 12:01 51.65427 46.34567 2514 ft 94 kts 241°
2026-04-18 12:01 51.65231 46.33577 2547 ft 95 kts 243°
2026-04-18 12:01 51.65002 46.32571 2565 ft 95 kts 239°
2026-04-18 12:02 51.64756 46.31582 2575 ft 96 kts 240°
2026-04-18 12:02 51.64487 46.30580 2526 ft 99 kts 238°
2026-04-18 12:02 51.64220 46.29626 2478 ft 101 kts 238°
2026-04-18 12:02 51.63948 46.28557 2416 ft 104 kts 240°
2026-04-18 12:03 51.63663 46.27518 2427 ft 99 kts 236°
2026-04-18 12:03 51.63367 46.26554 2459 ft 95 kts 234°
2026-04-18 12:03 51.63056 46.25633 2485 ft 93 kts 232°
2026-04-18 12:03 51.62732 46.24739 2491 ft 93 kts 231°
2026-04-18 12:04 51.62407 46.23824 2483 ft 94 kts 232°
2026-04-18 12:04 51.62086 46.22912 2498 ft 94 kts 235°
2026-04-18 12:04 51.61807 46.21964 2526 ft 94 kts 237°
2026-04-18 12:04 51.61674 46.20901 2572 ft 105 kts 262°
2026-04-18 12:05 51.61909 46.19706 2583 ft 117 kts 288°
2026-04-18 12:05 51.62403 46.18605 2487 ft 127 kts 297°
2026-04-18 12:05 51.62913 46.17474 2359 ft 123 kts 296°
2026-04-18 12:05 51.63356 46.16349 2253 ft 115 kts 288°
2026-04-18 12:06 51.63708 46.15221 2035 ft 110 kts 288°
2026-04-18 12:06 51.64043 46.14145 1811 ft 103 kts 288°
2026-04-18 12:06 51.64314 46.13126 1734 ft 96 kts 282°
2026-04-18 12:06 51.64498 46.12121 1652 ft 93 kts 272°
2026-04-18 12:07 51.64584 46.11092 1593 ft 93 kts 266°
2026-04-18 12:07 51.64619 46.10054 1486 ft 97 kts 262°
2026-04-18 12:07 51.64643 46.08938 1401 ft 102 kts 263°
2026-04-18 12:07 51.64678 46.07826 1419 ft 96 kts 265°
2026-04-18 12:08 51.64709 46.06768 1448 ft 94 kts 262°
2026-04-18 12:08 51.64732 46.05714 1474 ft 95 kts 260°
2026-04-18 12:08 51.64739 46.04673 1515 ft 92 kts 259°
2026-04-18 12:08 51.64756 46.03629 1531 ft 94 kts 259°
2026-04-18 12:09 51.64761 46.02586 1535 ft 92 kts 256°
2026-04-18 12:09 51.64736 46.01567 1507 ft 88 kts 244°
2026-04-18 12:09 51.64321 46.01038 1439 ft 82 kts 186°
2026-04-18 12:09 51.63764 46.00974 1483 ft 78 kts 182°
2026-04-18 12:10 51.63221 46.00982 1508 ft 78 kts 179°
2026-04-18 12:10 51.62696 46.01261 1485 ft 91 kts 141°
2026-04-18 12:10 51.62545 46.02321 1475 ft 108 kts 95°
2026-04-18 12:10 51.62604 46.03152 1435 ft 110 kts 98°
2026-04-18 12:11 51.62628 46.04356 1502 ft 104 kts 101°
2026-04-18 12:11 51.62623 46.05499 1526 ft 103 kts 101°
2026-04-18 12:11 51.62611 46.06661 1535 ft 105 kts 100°
2026-04-18 12:11 51.62610 46.07848 1517 ft 106 kts 100°
2026-04-18 12:12 51.62629 46.09001 1526 ft 101 kts 99°
2026-04-18 12:12 51.62676 46.10128 1451 ft 105 kts 94°
2026-04-18 12:12 51.62746 46.11294 1456 ft 106 kts 85°
2026-04-18 12:12 51.63254 46.12180 1451 ft 116 kts 22°
2026-04-18 12:13 51.64017 46.12368 1431 ft 106 kts
2026-04-18 12:13 51.64751 46.12312 1246 ft 102 kts 333°
2026-04-18 12:13 51.65134 46.11553 1074 ft 77 kts 259°
2026-04-18 12:13 51.64968 46.10844 968 ft 66 kts 229°
2026-04-18 12:14 51.64773 46.10177 927 ft 69 kts 232°
2026-04-18 12:14 51.64620 46.09388 788 ft 77 kts 250°
2026-04-18 12:14 51.64566 46.08518 652 ft 77 kts 257°
2026-04-18 12:14 51.64528 46.07589 513 ft 74 kts 259°
2026-04-18 12:15 51.64501 46.06916 462 ft 52 kts 270°
2026-04-18 12:15 51.64509 46.06623 462 ft 14 kts 287°
2026-04-18 12:15 51.64511 46.06566 462 ft 1 kts 93°
2026-04-18 12:15 51.64512 46.06669 461 ft 14 kts 88°
2026-04-18 12:16 51.64526 46.06780 462 ft 7 kts 45°
2026-04-18 12:16 51.64568 46.06779 460 ft 9 kts 326°
2026-04-18 12:16 51.64606 46.06688 460 ft 9 kts 297°
2026-04-18 12:16 51.64648 46.06569 460 ft 17 kts 304°
2026-04-18 12:17 51.64714 46.06388 460 ft 18 kts 299°
2026-04-18 12:17 51.64776 46.06254 460 ft 12 kts 328°
2026-04-18 12:17 51.64815 46.06225 460 ft 0 kts 227°
2026-04-18 12:18 51.64813 46.06223 460 ft 0 kts 224°
2026-04-18 12:22 51.64814 46.06223 460 ft 0 kts 224°